Hourly Data Report for October 01, 2017

All times are specified in Local Standard Time (LST). Add 1 hour to adjust for Daylight Saving Time where and when it is observed.

SALMON ARM CS
BRITISH COLUMBIA

50°42'10.800" N
119°17'26.440" W
350.50 m
116FRMN
71218
WSL

Download Data

Hourly Data (October 2017)
Hourly Data Report for October 1, 2017
Temp Definition
°C
Dew Point Temp Definition
°C
Rel Hum Definition
%
Wind Dir Definition
10's deg

Wind Spd Definition
km/h
Visibility Definition
km
Stn Press Definition
kPa
Hmdx Definition


Wind Chill Definition


Weather Definition


TIME
00:00 4.6 4.6 100 16 5   97.37     LegendNANA
01:00 4.2 4.2 100 16 2   97.40     LegendNANA
02:00 4.8 4.8 100 26 4   97.42     LegendNANA
03:00 5.8 5.8 100 22 4   97.44     LegendNANA
04:00 5.2 5.2 100 25 3   97.46     LegendNANA
05:00 5.7 5.7 100 18 2   97.45     LegendNANA
06:00 6.2 6.2 100 29 3   97.47     LegendNANA
07:00 6.5 6.5 100 22 2   97.52     LegendNANA
08:00 7.7 7.7 100 18 3   97.53     LegendNANA
09:00 9.6 8.3 92 16 3   97.53     LegendNANA
10:00 11.7 8.8 83 20 3   97.52     LegendNANA
11:00 12.9 8.3 74 23 1   97.53     LegendNANA
12:00 12.5 5.6 63 31 11   97.54     LegendNANA
13:00 14.3 5.0 54 27 4   97.54     LegendNANA
14:00 15.2 3.4 45 22 5   97.50     LegendNANA
15:00 13.9 4.2 52 29 10   97.51     LegendNANA
16:00 14.9 3.8 47 29 11   97.50     LegendNANA
17:00 12.5 2.9 52 28 11   97.52     LegendNANA
18:00 12.9 2.6 50 25 8   97.58     LegendNANA
19:00 12.2 5.4 63 34 11   97.66     LegendNANA
20:00 10.0 4.2 67 9 3   97.70     LegendNANA
21:00 9.4 4.8 73 4 7   97.71     LegendNANA
22:00 8.9 4.3 73 4 6   97.72     LegendNANA
23:00 7.6 3.7 76 10 2   97.74     LegendNANA

Notes on Data Quality.

Legend

  • E = Estimated
  • M = Missing
  • NA = Not Available
  • ‡ = Partner data that is not subject to review by the National Climate Archives
Date modified: